Snowfall_Accumulation
0.1 0.0 0.0 0.0 0.0 0.0 0.5 0.0 0.3 0.0 0.0 0.0 0.0 0.0 0.0 0.0 0.0 0.0 0.0 0.0 0.0 0.0 0.0 0.0 0.0 0.0 0.0 0.0 0.0 0.0 0.0 0.0 0.0 0.0 0.0 0.0 0.0 0.0 0.0 0.0 0.0 0.0 0.0 0.0
0.1 0.0 0.0 0.0 0.0 0.0 0.0 0.0 0.0 0.0 0.0 0.0 0.0 0.0 0.0 0.0 0.0 0.0 0.0 0.0 0.0 0.0 0.0 0.0 0.0 0.0 0.0 0.0 0.0 0.0 0.0 0.0 0.0 0.0 0.0 0.0 0.0 0.0 0.0 0.0 0.0 0.0 0.0 0.0
0.1 0.0 0.0 1.2 0.0 0.0 0.0 0.0 0.0 0.1 0.0 0.0 0.0 0.0 0.0 0.0 0.0 0.0 0.0 0.0 0.0 0.0 0.0 0.0 0.0 0.0 0.0 0.0 0.0 0.0 0.0 0.0 0.0 0.0 0.0 0.0 0.0 0.0 0.0 0.0 0.0 0.0 0.0 0.0
1.3 0.1 8.5 0.0 0.0 0.0 0.0 0.0 0.0 0.0 0.0 0.0 0.0 0.0 0.0 0.0 0.0 0.0 0.0 0.0 0.0 0.0 0.0 0.0 0.0 0.0 0.0 0.0 0.0 0.0 0.0 0.0 0.0 0.0 0.0 0.0 0.0 0.0 0.0 0.0 0.0 0.0 0.0 0.0
5.1 0.4 0.0 0.0 0.0 0.0 0.0 0.0 0.0 0.0 0.0 0.0 0.0 0.0 0.0 0.0 0.0 0.0 0.0 0.0 0.0 0.0 0.0 0.0 0.0 0.0 0.0 0.0 0.0 0.0 0.0 0.0 0.0 0.0 0.0 0.0 0.0 0.0 0.0 0.0 0.0 0.0 0.0 0.0
0.7 0.4 1.8 0.0 0.0 0.0 0.0 0.0 0.0 0.0 0.0 0.0 0.0 0.0 0.0 0.0 0.0 0.0 0.0 0.0 0.0 0.0 0.0 0.0 0.0 0.0 0.0 0.0 0.0 0.0 0.0 0.0 0.0 0.0 0.0 0.0 0.0 0.0 0.0 0.0 0.0 0.0 0.0 0.0
0.9 0.6 0.1 0.0 0.0 0.0 0.2 0.1 0.0 0.0 0.0 0.0 0.0 0.0 0.0 0.0 0.0 0.0 0.0 0.0 0.0 0.0 0.0 0.0 0.0 0.0 0.0 0.0 0.0 0.0 0.0 0.0 0.0 0.0 0.0 0.0 0.0 0.0 0.0 0.0 0.0 0.0 0.0 0.0
1.5 3.2 5.2 0.0 0.0 0.0 0.0 0.0 0.0 0.0 0.0 0.0 0.0 0.0 0.0 0.0 0.0 0.0 0.0 0.0 0.0 0.0 0.0 0.0 0.0 0.0 0.0 0.0 0.0 0.0 0.0 0.0 0.0 0.0 0.0 0.0 0.0 0.0 0.0 0.0 0.0 0.0 0.0 0.0
0.1 0.3 0.0 0.0 0.0 0.0 0.0 0.0 0.0 0.0 0.0 0.0 0.0 0.0 0.0 0.0 0.0 0.0 0.0 0.0 0.0 0.0 0.0 0.0 0.0 0.0 0.0 0.0 0.0 0.0 0.0 0.0 0.0 0.0 0.0 0.0 0.0 0.0 0.0 0.0 0.0 0.0 0.1 0.1
0.0 0.0 0.0 0.0 0.0 0.0 0.0 0.0 0.0 0.0 0.0 0.0 0.0 0.0 0.0 0.0 0.0 0.0 0.0 0.0 0.0 0.0 0.0 0.0 0.0 0.0 0.0 0.0 0.0 0.0 0.0 0.0 0.0 0.0 0.0 0.0 0.0 0.0 0.0 0.0 0.1 0.2 0.3 0.5
0.0 0.0 0.0 0.0 0.0 0.0 0.0 0.0 0.0 0.0 0.0 0.0 0.0 0.0 0.0 0.0 0.0 0.0 0.0 0.0 0.0 0.0 0.0 0.0 0.0 0.0 0.0 0.0 0.0 0.0 0.0 0.0 0.0 0.0 0.0 0.0 0.0 0.0 0.0 0.0 0.1 0.4 0.4 0.9
0.0 0.0 0.0 0.0 0.0 0.0 0.0 0.0 0.0 0.0 0.0 0.0 0.0 0.0 0.0 0.0 0.0 0.0 0.0 0.0 0.0 0.0 0.0 0.0 0.0 0.0 0.0 0.0 0.0 0.0 0.0 0.0 0.0 0.0 0.0 0.0 0.0 0.1 nan nan nan nan nan 0.5
0.0 0.0 0.0 0.0 0.0 0.0 0.0 0.0 0.0 0.0 0.0 0.0 0.0 0.0 0.0 0.0 0.0 nan 0.0 0.0 0.0 0.0 0.0 0.0 0.0 0.0 0.0 0.0 0.0 0.0 0.0 0.0 0.0 0.0 0.0 0.0 0.0 0.1 0.3 0.3 nan nan nan nan
0.0 0.0 0.0 0.0 0.0 0.0 0.0 0.0 0.0 0.0 0.0 0.0 0.0 0.0 0.0 0.0 0.0 0.0 0.0 0.0 0.0 0.0 0.0 0.0 0.0 0.0 0.0 0.0 0.0 0.0 0.0 0.0 0.0 0.0 0.0 0.0 0.0 0.1 0.3 0.6 0.7 0.3 nan nan
0.0 0.0 0.0 0.0 0.0 0.0 0.0 0.0 0.0 0.0 0.0 0.0 0.0 0.0 0.0 0.0 0.0 0.0 0.0 0.0 0.0 0.0 0.0 0.0 0.0 0.0 0.0 0.0 0.0 0.0 0.0 0.1 0.0 0.1 0.1 0.1 0.1 0.2 0.2 0.3 0.3 0.3 0.3 0.2
0.0 0.0 0.0 0.0 0.0 0.0 0.0 0.0 0.0 0.0 0.0 0.0 0.0 0.0 0.0 0.0 0.0 0.0 0.0 0.0 0.1 0.1 0.0 0.9 0.4 0.0 0.0 0.0 0.0 0.0 0.0 0.0 0.0 0.1 0.1 0.1 0.1 0.3 0.3 0.3 0.5 0.7 0.4 0.3
0.0 0.0 0.0 0.0 0.0 0.0 0.0 0.0 0.0 0.0 0.0 0.0 0.0 0.0 0.0 0.0 0.0 0.0 0.0 0.0 0.0 0.0 0.0 0.0 0.0 0.0 0.0 0.0 0.0 0.1 0.0 0.0 0.0 0.1 0.1 0.1 0.3 0.4 0.6 0.8 0.5 0.2 0.2 0.2
0.0 0.0 0.0 0.0 0.0 0.0 0.0 0.0 0.0 0.0 0.0 0.0 0.0 0.0 1.0 0.9 0.0 0.1 0.2 0.1 0.4 0.7 0.0 0.0 0.0 0.0 0.0 0.0 0.0 0.1 0.1 0.1 0.1 0.2 0.2 0.5 0.7 0.5 0.3 0.2 0.2 0.2 0.2 0.2
0.0 0.0 0.0 0.0 0.0 0.0 0.0 0.0 0.0 0.0 0.0 0.0 0.2 0.1 0.0 0.8 0.0 0.0 0.0 2.0 2.2 0.0 0.0 0.0 0.0 0.0 0.0 0.0 0.0 0.1 0.2 0.4 0.6 0.8 0.7 0.1 0.2 0.1 0.2 0.2 0.2 0.3 0.2 0.3
0.0 0.0 0.0 0.0 0.0 0.0 0.0 0.0 0.0 0.0 0.0 0.0 1.2 2.6 1.4 3.4 2.4 2.6 0.1 0.2 0.2 0.7 0.0 0.0 0.0 0.0 0.0 0.0 0.1 0.2 0.3 0.5 0.5 0.3 0.3 0.2 0.3 0.5 0.3 0.2 0.3 0.4 0.7 0.8
0.0 0.0 0.0 0.0 0.0 0.0 0.1 0.2 0.0 0.0 0.0 1.5 2.0 3.7 3.9 2.3 3.2 4.5 1.7 1.0 0.2 0.0 0.0 0.0 0.1 0.3 0.1 0.3 0.2 0.3 0.5 0.7 0.6 0.5 0.6 1.0 1.4 0.6 0.7 0.7 0.8 1.2 2.3 1.7
0.0 0.1 1.9 1.1 0.2 0.8 0.4 0.0 0.0 2.4 2.1 4.3 6.7 7.9 6.6 2.0 3.0 2.6 2.9 1.0 0.7 0.0 0.3 0.3 0.4 0.2 0.2 0.5 0.2 0.6 0.5 0.5 0.6 0.8 1.0 1.4 1.3 3.0 3.0 2.4 2.8 3.4 3.3 3.6
0.0 0.0 0.9 4.6 4.1 1.5 2.8 2.8 5.0 3.5 6.7 5.9 6.8 3.2 1.0 0.8 0.7 3.3 5.0 0.1 0.8 1.2 0.7 0.8 1.2 1.1 1.8 1.3 1.0 1.4 2.0 2.2 2.2 1.7 1.6 2.8 2.3 5.7 2.6 2.7 3.1 2.9 5.7 3.6
0.0 0.0 0.4 0.8 2.2 1.4 2.8 0.4 0.3 0.4 5.9 3.0 3.9 6.0 0.6 4.0 2.9 0.6 1.2 2.8 2.9 7.3 4.6 1.9 3.7 3.4 3.5 3.1 3.4 3.7 2.8 3.2 3.0 3.0 1.3 4.3 5.6 4.0 2.9 5.2 3.4 3.0 3.8 3.8
0.2 0.5 0.7 0.5 0.1 0.5 0.1 0.0 0.7 0.7 0.3 0.2 0.3 0.2 0.4 0.7 6.0 3.2 3.2 3.0 4.7 2.5 3.4 3.8 4.2 6.1 5.8 5.6 5.0 5.0 4.7 3.0 3.5 4.5 3.2 6.0 5.4 8.8 6.2 4.3 5.6 6.0 6.1 4.8
0.0 0.3 0.3 0.0 0.2 0.3 0.4 0.4 0.6 0.8 0.7 2.6 1.3 3.2 2.1 2.5 2.2 2.3 2.8 4.4 2.4 4.7 3.3 7.1 8.6 8.3 7.2 5.0 5.2 5.8 3.5 2.4 3.3 3.2 4.3 4.7 4.3 3.4 4.5 3.8 5.8 7.5 9.8 11.2
0.3 0.1 0.4 0.4 0.4 0.2 0.2 0.4 1.1 2.1 1.7 4.1 6.2 3.4 2.5 3.6 4.4 3.6 6.0 6.1 6.1 7.9 8.1 8.3 6.1 5.9 3.7 5.5 5.4 4.8 4.2 3.9 5.6 3.0 5.4 7.5 6.8 9.7 8.8 8.4 10.0 10.9 9.6 8.8
Water_Equivalent
0.02 0.00 0.00 0.00 0.00 0.00 0.11 0.01 0.08 0.00 0.00 0.00 0.00 0.00 0.00 0.00 0.00 0.00 0.00 0.00 0.00 0.00 0.00 0.00 0.00 0.00 0.00 0.00 0.00 0.00 0.00 0.00 0.00 0.00 0.00 0.00 0.00 0.00 0.00 0.00 0.00 0.00 0.00 0.00
0.02 0.00 0.00 0.00 0.00 0.00 0.00 0.00 0.00 0.00 0.00 0.00 0.00 0.00 0.00 0.00 0.00 0.00 0.00 0.00 0.00 0.00 0.00 0.00 0.00 0.00 0.00 0.00 0.00 0.00 0.00 0.00 0.00 0.00 0.00 0.00 0.00 0.00 0.00 0.00 0.00 0.00 0.00 0.00
0.03 0.00 0.00 0.28 0.00 0.00 0.00 0.00 0.00 0.03 0.00 0.00 0.00 0.00 0.00 0.00 0.00 0.00 0.00 0.00 0.00 0.00 0.00 0.00 0.00 0.00 0.00 0.00 0.00 0.00 0.00 0.00 0.00 0.00 0.00 0.00 0.00 0.00 0.00 0.00 0.00 0.00 0.00 0.00
0.38 0.02 1.76 0.01 0.00 0.00 0.00 0.00 0.00 0.00 0.00 0.00 0.00 0.00 0.00 0.00 0.00 0.00 0.00 0.00 0.00 0.00 0.00 0.00 0.00 0.00 0.00 0.00 0.00 0.00 0.00 0.00 0.00 0.00 0.00 0.00 0.00 0.00 0.00 0.00 0.00 0.00 0.00 0.00
1.25 0.12 0.00 0.00 0.00 0.00 0.00 0.00 0.00 0.00 0.00 0.00 0.00 0.00 0.00 0.00 0.00 0.00 0.00 0.00 0.00 0.00 0.00 0.00 0.00 0.00 0.00 0.00 0.00 0.00 0.00 0.00 0.00 0.00 0.00 0.00 0.00 0.00 0.00 0.00 0.00 0.00 0.00 0.00
0.22 0.10 0.42 0.00 0.00 0.00 0.00 0.01 0.00 0.00 0.00 0.00 0.00 0.00 0.00 0.00 0.00 0.00 0.00 0.00 0.00 0.00 0.00 0.00 0.00 0.00 0.00 0.00 0.00 0.00 0.00 0.00 0.00 0.00 0.00 0.00 0.00 0.00 0.00 0.00 0.00 0.00 0.00 0.00
0.29 0.17 0.04 0.00 0.00 0.00 0.05 0.01 0.00 0.00 0.00 0.00 0.00 0.00 0.00 0.00 0.00 0.00 0.00 0.00 0.00 0.00 0.00 0.00 0.00 0.00 0.00 0.00 0.00 0.00 0.00 0.00 0.00 0.00 0.00 0.00 0.00 0.00 0.00 0.00 0.00 0.00 0.00 0.00
0.41 0.80 1.08 0.00 0.00 0.00 0.01 0.00 0.00 0.00 0.00 0.00 0.00 0.00 0.00 0.00 0.00 0.00 0.00 0.00 0.00 0.00 0.00 0.00 0.00 0.00 0.00 0.00 0.00 0.00 0.00 0.00 0.00 0.00 0.00 0.00 0.00 0.00 0.00 0.00 0.00 0.00 0.00 0.00
0.03 0.10 0.00 0.00 0.00 0.00 0.00 0.00 0.00 0.00 0.00 0.00 0.00 0.00 0.00 0.00 0.00 0.00 0.00 0.00 0.00 0.00 0.00 0.00 0.00 0.00 0.00 0.00 0.00 0.00 0.00 0.00 0.00 0.00 0.00 0.00 0.00 0.00 0.00 0.00 0.00 0.00 0.02 0.03
0.01 0.00 0.00 0.00 0.00 0.00 0.00 0.00 0.00 0.00 0.00 0.00 0.00 0.00 0.00 0.00 0.00 0.00 0.00 0.00 0.00 0.00 0.00 0.00 0.00 0.00 0.00 0.00 0.00 0.00 0.00 0.00 0.00 0.00 0.00 0.00 0.00 0.00 0.00 0.01 0.04 0.06 0.08 0.13
0.00 0.00 0.00 0.00 0.00 0.00 0.00 0.00 0.00 0.00 0.00 0.00 0.00 0.00 0.00 0.00 0.00 0.00 0.00 0.00 0.00 0.00 0.00 0.00 0.00 0.00 0.00 0.00 0.00 0.00 0.00 0.00 0.00 0.00 0.00 0.00 0.00 0.00 0.00 0.00 0.04 0.10 0.11 0.19
0.00 0.00 0.00 0.00 0.00 0.00 0.00 0.00 0.00 0.00 0.00 0.00 0.00 0.00 0.00 0.00 0.00 0.00 0.00 0.00 0.00 0.00 0.00 0.00 0.00 0.00 0.00 0.00 0.00 0.00 0.00 0.00 0.00 0.00 0.00 0.00 0.00 0.03 nan nan nan nan nan 0.13
0.00 0.00 0.00 0.00 0.00 0.00 0.00 0.00 0.00 0.00 0.00 0.00 0.00 0.00 0.00 0.00 0.00 nan 0.00 0.00 0.00 0.00 0.00 0.00 0.00 0.00 0.00 0.00 0.00 0.00 0.00 0.00 0.00 0.00 0.00 0.00 0.01 0.05 0.11 0.10 nan nan nan nan
0.00 0.00 0.00 0.00 0.00 0.00 0.00 0.00 0.00 0.00 0.00 0.00 0.00 0.00 0.00 0.00 0.00 0.00 0.00 0.00 0.00 0.00 0.00 0.00 0.00 0.00 0.00 0.00 0.00 0.00 0.00 0.00 0.01 0.00 0.00 0.02 0.01 0.05 0.07 0.14 0.17 0.13 nan nan
0.00 0.00 0.00 0.00 0.00 0.00 0.00 0.00 0.00 0.00 0.00 0.00 0.00 0.00 0.00 0.00 0.00 0.00 0.00 0.00 0.00 0.00 0.00 0.00 0.00 0.00 0.00 0.00 0.00 0.00 0.00 0.02 0.02 0.02 0.02 0.02 0.04 0.06 0.07 0.09 0.08 0.09 0.10 0.07
0.00 0.00 0.00 0.00 0.00 0.00 0.00 0.00 0.00 0.00 0.00 0.00 0.00 0.00 0.00 0.00 0.00 0.00 0.00 0.00 0.03 0.03 0.00 0.37 0.15 0.00 0.00 0.00 0.00 0.00 0.02 0.00 0.01 0.02 0.03 0.04 0.04 0.08 0.08 0.08 0.12 0.18 0.11 0.09
0.00 0.00 0.00 0.00 0.00 0.00 0.00 0.00 0.00 0.00 0.00 0.00 0.00 0.00 0.00 0.00 0.00 0.00 0.00 0.00 0.00 0.00 0.00 0.00 0.00 0.00 0.00 0.00 0.00 0.03 0.01 0.01 0.00 0.02 0.03 0.03 0.06 0.09 0.14 0.23 0.13 0.06 0.07 0.09
0.00 0.00 0.00 0.00 0.00 0.00 0.00 0.00 0.00 0.00 0.00 0.00 0.00 0.01 0.33 0.27 0.01 0.04 0.08 0.02 0.15 0.27 0.00 0.00 0.00 0.00 0.00 0.00 0.00 0.02 0.04 0.04 0.02 0.05 0.05 0.12 0.20 0.12 0.07 0.06 0.05 0.06 0.06 0.07
0.00 0.00 0.00 0.00 0.00 0.00 0.00 0.00 0.00 0.00 0.01 0.00 0.06 0.04 0.01 0.26 0.00 0.00 0.00 0.66 0.72 0.01 0.01 0.00 0.00 0.00 0.00 0.00 0.01 0.05 0.06 0.11 0.15 0.18 0.17 0.02 0.07 0.03 0.06 0.07 0.07 0.08 0.07 0.10
0.00 0.00 0.00 0.00 0.00 0.00 0.00 0.00 0.00 0.00 0.00 0.00 0.39 0.83 0.41 1.06 0.76 0.84 0.04 0.05 0.04 0.16 0.00 0.00 0.00 0.00 0.00 0.00 0.02 0.06 0.10 0.15 0.11 0.10 0.10 0.07 0.11 0.15 0.09 0.06 0.09 0.10 0.26 0.25
0.00 0.00 0.00 0.00 0.00 0.00 0.05 0.09 0.01 0.00 0.01 0.50 0.66 1.12 1.13 0.69 1.02 1.44 0.51 0.29 0.02 0.01 0.00 0.00 0.02 0.07 0.04 0.08 0.06 0.09 0.15 0.24 0.23 0.15 0.16 0.29 0.45 0.20 0.24 0.24 0.22 0.36 0.74 0.50
0.00 0.04 0.61 0.33 0.05 0.21 0.13 0.00 0.00 0.67 0.61 1.27 2.02 2.34 1.81 0.50 0.92 0.81 0.93 0.26 0.21 0.00 0.10 0.09 0.10 0.05 0.07 0.17 0.08 0.21 0.15 0.17 0.21 0.24 0.29 0.42 0.42 1.05 1.06 0.79 0.87 1.10 1.06 1.18
0.00 0.00 0.27 1.23 1.15 0.44 0.81 0.79 1.43 1.04 1.89 1.68 1.89 0.93 0.31 0.24 0.22 0.82 1.10 0.03 0.22 0.38 0.22 0.28 0.38 0.37 0.61 0.52 0.37 0.54 0.76 0.83 0.75 0.52 0.48 0.95 0.74 1.98 0.69 0.76 0.94 0.88 1.90 1.07
0.00 0.01 0.12 0.24 0.62 0.37 0.69 0.11 0.09 0.11 1.64 0.84 1.14 1.79 0.19 1.08 0.96 0.18 0.31 0.91 0.96 2.78 1.70 0.67 1.30 1.14 1.14 1.18 1.26 1.45 1.06 1.15 1.05 1.04 0.39 1.40 1.98 1.26 0.83 1.71 0.91 0.95 1.20 1.11
0.06 0.15 0.19 0.14 0.03 0.17 0.02 0.01 0.20 0.19 0.08 0.06 0.09 0.07 0.09 0.23 1.34 0.82 0.86 0.86 1.52 0.80 1.06 1.27 1.38 2.01 2.16 2.11 1.86 1.84 1.69 1.04 1.19 1.52 0.92 1.86 1.58 2.83 1.98 1.25 1.67 1.84 1.85 1.44
0.00 0.11 0.09 0.00 0.07 0.11 0.12 0.13 0.17 0.23 0.22 0.71 0.36 1.08 0.69 0.64 0.59 0.59 0.78 1.35 0.66 1.52 0.94 2.29 3.00 2.93 2.53 1.69 1.85 1.98 1.16 0.73 0.96 0.91 1.24 1.27 1.14 0.85 1.19 1.00 1.69 2.38 3.15 3.65
0.09 0.04 0.14 0.13 0.12 0.08 0.08 0.13 0.32 0.55 0.53 1.19 1.43 0.95 0.70 0.98 1.27 1.06 1.90 1.79 1.77 2.24 2.33 2.65 2.00 1.96 1.11 1.76 1.54 1.36 1.19 1.10 1.80 0.76 1.55 2.04 1.91 2.87 2.46 2.44 3.02 3.45 2.88 2.45
SL_Ratio
3.3 nan nan nan nan nan 4.4 3.5 3.9 nan nan nan nan nan nan nan nan nan nan nan nan nan nan nan nan nan nan nan nan nan nan nan nan nan nan nan nan nan nan nan nan nan nan nan
3.3 nan nan nan nan nan nan nan nan nan nan nan nan nan nan nan nan nan nan nan nan nan nan nan nan nan nan nan nan nan nan nan nan nan nan nan nan nan nan nan nan nan nan nan
3.6 nan nan 4.2 nan nan nan nan nan 3.5 nan nan nan nan nan nan nan nan nan nan nan nan nan nan nan nan nan nan nan nan nan nan nan nan nan nan nan nan nan nan nan nan nan nan
3.5 3.0 4.8 3.5 nan nan nan nan nan nan nan nan nan nan nan nan nan nan nan nan nan nan nan nan nan nan nan nan nan nan nan nan nan nan nan nan nan nan nan nan nan nan nan nan
4.1 3.3 nan nan nan nan nan nan nan nan nan nan nan nan nan nan nan nan nan nan nan nan nan nan nan nan nan nan nan nan nan nan nan nan nan nan nan nan nan nan nan nan nan nan
3.1 3.9 4.2 nan nan nan nan 3.5 nan nan nan nan nan nan nan nan nan nan nan nan nan nan nan nan nan nan nan nan nan nan nan nan nan nan nan nan nan nan nan nan nan nan nan nan
3.2 3.6 3.1 nan nan nan 3.9 4.3 nan nan nan nan 2.5 nan nan nan nan nan nan nan nan nan nan nan nan nan nan nan nan nan nan nan nan nan nan nan nan nan nan nan nan nan nan nan
3.7 4.0 4.8 nan nan nan 3.2 nan nan nan nan nan nan nan nan nan nan nan nan nan nan nan nan nan nan nan nan nan nan nan nan nan nan nan nan nan nan nan nan nan nan nan nan nan
3.5 3.1 nan nan nan nan nan nan nan nan nan nan nan nan nan nan nan nan nan nan nan nan nan nan nan nan nan nan nan nan nan nan nan nan nan nan nan nan nan nan nan nan 2.6 2.6
3.3 nan nan nan nan nan nan nan nan nan nan nan nan nan nan nan nan nan nan nan nan nan nan nan nan nan nan nan nan nan nan nan nan nan nan nan nan nan nan 2.5 3.0 3.0 3.4 3.6
nan nan nan nan nan nan nan nan nan nan nan nan nan nan nan nan nan nan nan nan nan nan nan nan nan nan nan nan nan nan nan nan nan nan nan nan nan nan nan 2.5 3.2 3.7 3.5 4.9
2.0 nan nan nan nan nan nan nan nan nan nan nan nan nan nan nan nan nan nan nan nan nan nan nan nan nan nan nan nan nan nan nan nan nan nan nan nan 2.5 nan nan nan nan nan 3.8
nan nan nan nan nan nan nan nan nan nan nan nan nan nan nan nan nan nan nan nan nan nan nan nan nan nan nan nan nan nan nan nan nan nan nan 3.3 2.5 2.8 3.2 2.5 nan nan nan nan
nan nan nan nan nan nan nan nan nan nan nan nan nan nan nan nan nan nan nan nan nan nan nan nan nan nan nan nan nan nan nan nan 3.5 3.3 0.0 2.6 2.8 3.0 3.7 4.1 3.9 2.6 nan nan
nan nan nan nan nan nan nan nan nan nan nan nan nan nan nan nan nan nan nan nan nan 2.5 nan nan nan nan nan nan nan nan nan 2.6 2.5 2.6 2.5 2.8 3.1 3.5 3.7 3.8 3.2 2.9 3.0 3.7
nan nan nan nan nan nan nan nan nan nan nan nan nan nan nan nan nan nan nan nan 3.8 3.5 nan 2.5 2.5 nan nan nan nan nan 2.5 nan 2.4 2.8 3.1 3.0 3.2 4.1 4.0 3.7 4.3 4.3 3.9 3.5
nan nan nan nan nan nan nan nan nan nan nan nan nan nan nan nan nan nan nan nan nan 5.0 nan nan 4.2 nan nan nan nan 2.7 2.6 2.4 nan 3.1 3.2 3.9 4.4 4.4 4.0 3.4 4.0 3.7 3.0 2.8
nan nan nan nan nan nan nan nan nan nan nan nan nan 2.6 3.0 3.5 3.6 3.0 2.8 2.6 2.5 2.6 nan nan 5.0 nan nan nan nan 2.5 2.7 2.9 3.1 3.4 3.9 4.1 3.7 3.8 4.2 4.0 3.7 3.4 3.1 2.9
nan nan nan nan nan nan nan nan nan nan 2.8 3.0 3.0 3.0 2.7 3.2 nan nan 0.0 3.0 3.1 5.0 4.8 nan nan nan nan nan 3.1 2.6 3.0 3.5 4.2 4.4 4.3 3.4 3.1 3.2 3.7 3.7 3.5 3.3 3.4 3.2
nan nan nan nan nan nan nan nan nan nan nan nan 3.0 3.2 3.4 3.2 3.1 3.1 2.9 3.1 4.7 4.2 4.6 nan 7.8 nan nan nan 3.1 3.3 3.4 3.7 4.0 3.2 3.2 3.3 3.3 3.2 3.6 3.2 3.6 3.4 2.9 3.2
nan nan nan nan nan nan 2.6 2.7 2.7 0.0 3.1 3.0 3.1 3.3 3.4 3.3 3.2 3.1 3.3 3.4 7.4 4.5 nan nan 3.3 3.9 2.9 3.5 2.9 3.0 3.1 2.8 2.8 3.2 3.4 3.3 3.1 3.2 3.0 3.1 3.4 3.3 3.1 3.4
nan 2.9 3.0 3.4 3.4 3.6 3.2 5.0 0.0 3.6 3.5 3.3 3.3 3.4 3.6 4.0 3.3 3.3 3.1 3.9 3.6 nan 2.6 2.7 3.6 3.6 3.2 3.0 2.6 2.7 3.0 2.9 2.9 3.3 3.6 3.3 3.1 2.9 2.9 3.0 3.2 3.1 3.1 3.0
nan 3.0 3.3 3.7 3.5 3.4 3.4 3.5 3.5 3.4 3.5 3.5 3.6 3.4 3.3 3.2 3.2 4.0 4.6 4.8 3.4 3.1 3.1 3.0 3.0 3.0 3.0 2.5 2.6 2.7 2.6 2.6 2.9 3.3 3.4 2.9 3.1 2.9 3.8 3.6 3.3 3.3 3.0 3.4
0.0 3.3 3.3 3.4 3.6 3.9 4.0 3.5 3.4 3.4 3.6 3.6 3.5 3.3 3.3 3.8 3.1 3.1 3.8 3.0 3.0 2.6 2.7 2.8 2.8 3.0 3.0 2.6 2.7 2.6 2.7 2.8 2.9 2.9 3.4 3.0 2.8 3.2 3.5 3.1 3.8 3.2 3.2 3.4
3.4 3.4 3.4 3.6 3.5 3.2 3.4 3.3 3.6 3.7 3.4 3.3 3.5 3.3 3.7 3.2 4.5 3.9 3.7 3.5 3.1 3.1 3.2 3.0 3.0 3.0 2.7 2.6 2.7 2.7 2.8 2.9 2.9 3.0 3.5 3.2 3.4 3.1 3.2 3.5 3.4 3.3 3.3 3.3
nan 2.9 2.9 0.0 3.1 3.0 3.1 3.1 3.3 3.3 3.3 3.7 3.7 3.0 3.0 3.8 3.8 3.8 3.6 3.2 3.7 3.1 3.5 3.1 2.9 2.8 2.8 3.0 2.8 2.9 3.0 3.3 3.5 3.6 3.5 3.7 3.8 4.0 3.8 3.8 3.4 3.2 3.1 3.1
2.9 3.0 3.1 3.1 3.0 2.8 2.9 3.1 3.5 3.8 3.3 3.4 4.3 3.6 3.6 3.7 3.4 3.4 3.2 3.4 3.4 3.5 3.5 3.1 3.1 3.0 3.4 3.1 3.5 3.6 3.5 3.5 3.1 3.9 3.5 3.7 3.6 3.4 3.6 3.5 3.3 3.2 3.3 3.6